Terug naar catalogus

STARLINK-1464

ActiefCommunicatieVLEO
NORAD 45751·PAYLOAD·🇺🇸 United States

Gelanceerd Jun 13, 2020 vanaf Cape Canaveral Space Force Station

Loading…

Volgende Passages (komende 24 uur)

TLE

VersSource: CelesTrak SupGP

Epoch: Sep 15, 2026, 01:49 UTC

1 45751C 20038X   26258.07618056  .00067143  00000+0  50435-3 0  2589
2 45751  53.0438   9.9196 0001435  66.5072 348.7053 15.71872811    12

Volg STARLINK-1464 in realtime met AllMySat

Download on the App Store